Wetterdaten: Woche 22.02.21 - 28.02.21 (KW8)
Datum Zeit Temp. 2m rel. Feuchte Luftdruck Regen Wind Richtung Sonne ET UV-Index Solar Taupunkt Ben
22.02.2021 00:00 6,7 C 75 % 1015,7 hPa 0,0 mm 1,2 km/h (1 Bft) O 0,00 h 0,0 mm 0,0 UV-I 0 W/m 2,6 C 3,7 km/h (1 Bft)
22.02.2021 01:00 6,1 C 78 % 1015,9 hPa 0,0 mm 1,5 km/h (1 Bft) O 0,00 h 0,0 mm 0,0 UV-I 0 W/m 2,5 C 4,1 km/h (1 Bft)
22.02.2021 02:00 6,8 C 79 % 1016,1 hPa 0,0 mm 4,4 km/h (1 Bft) O 0,00 h 0,0 mm 0,0 UV-I 0 W/m 3,4 C 8,7 km/h (2 Bft)
22.02.2021 03:00 7,8 C 78 % 1016,2 hPa 0,0 mm 6,5 km/h (2 Bft) O 0,00 h 0,0 mm 0,0 UV-I 0 W/m 4,1 C 14,2 km/h (3 Bft)
22.02.2021 04:00 8,0 C 77 % 1016,4 hPa 0,0 mm 4,7 km/h (1 Bft) O 0,00 h 0,0 mm 0,0 UV-I 0 W/m 4,2 C 9,3 km/h (2 Bft)
22.02.2021 05:00 7,7 C 78 % 1016,7 hPa 0,0 mm 4,0 km/h (1 Bft) O 0,00 h 0,0 mm 0,0 UV-I 0 W/m 4,1 C 7,8 km/h (2 Bft)
22.02.2021 06:00 7,0 C 80 % 1017,1 hPa 0,0 mm 5,2 km/h (1 Bft) O 0,00 h 0,0 mm 0,0 UV-I 0 W/m 3,8 C 10,8 km/h (2 Bft)
22.02.2021 07:00 7,4 C 79 % 1017,2 hPa 0,0 mm 8,5 km/h (2 Bft) O 0,00 h 0,0 mm 0,0 UV-I 8 W/m 4,1 C 18,5 km/h (3 Bft)
22.02.2021 08:00 7,7 C 79 % 1018,0 hPa 0,0 mm 6,8 km/h (2 Bft) O 0,00 h 0,0 mm 0,6 UV-I 52 W/m 4,2 C 15,3 km/h (3 Bft)
22.02.2021 09:00 8,4 C 77 % 1018,5 hPa 0,0 mm 7,3 km/h (2 Bft) O 0,08 h 0,0 mm 1,1 UV-I 119 W/m 4,7 C 17,2 km/h (3 Bft)
22.02.2021 10:00 9,6 C 72 % 1018,9 hPa 0,0 mm 8,1 km/h (2 Bft) O 0,00 h 0,1 mm 1,4 UV-I 162 W/m 4,9 C 17,6 km/h (3 Bft)
22.02.2021 11:00 10,7 C 68 % 1019,1 hPa 0,0 mm 8,7 km/h (2 Bft) O 0,00 h 0,1 mm 1,6 UV-I 174 W/m 5,1 C 19,8 km/h (4 Bft)
22.02.2021 12:00 11,6 C 65 % 1019,3 hPa 0,0 mm 8,6 km/h (2 Bft) O 0,08 h 0,1 mm 2,0 UV-I 195 W/m 5,4 C 21,3 km/h (4 Bft)
22.02.2021 13:00 12,8 C 63 % 1019,1 hPa 0,0 mm 9,5 km/h (2 Bft) O 0,42 h 0,1 mm 2,7 UV-I 261 W/m 5,8 C 21,5 km/h (4 Bft)
22.02.2021 14:00 14,1 C 60 % 1019,2 hPa 0,0 mm 8,7 km/h (2 Bft) O 1,00 h 0,1 mm 2,7 UV-I 277 W/m 6,3 C 18,3 km/h (3 Bft)
22.02.2021 15:00 15,1 C 55 % 1020,0 hPa 0,0 mm 6,7 km/h (2 Bft) S 1,00 h 0,2 mm 2,0 UV-I 237 W/m 6,1 C 16,3 km/h (3 Bft)
22.02.2021 16:00 15,2 C 55 % 1020,6 hPa 0,0 mm 5,4 km/h (1 Bft) S 0,25 h 0,1 mm 1,2 UV-I 112 W/m 6,2 C 13,1 km/h (3 Bft)
22.02.2021 17:00 14,4 C 59 % 1021,0 hPa 0,0 mm 6,0 km/h (2 Bft) S 0,00 h 0,1 mm 0,0 UV-I 30 W/m 6,4 C 12,6 km/h (3 Bft)
22.02.2021 18:00 12,9 C 64 % 1021,9 hPa 0,0 mm 0,8 km/h (0 Bft) S 0,00 h 0,1 mm 0,0 UV-I 0 W/m 6,1 C 3,0 km/h (1 Bft)
22.02.2021 19:00 11,4 C 68 % 1022,9 hPa 0,0 mm 0,3 km/h (0 Bft) S 0,00 h 0,0 mm 0,0 UV-I 0 W/m 5,7 C 1,5 km/h (1 Bft)
22.02.2021 20:00 11,9 C 60 % 1023,7 hPa 0,0 mm 4,4 km/h (1 Bft) S-SW 0,00 h 0,0 mm 0,0 UV-I 0 W/m 4,4 C 10,6 km/h (2 Bft)
22.02.2021 21:00 12,3 C 57 % 1024,5 hPa 0,0 mm 3,9 km/h (1 Bft) S-SW 0,00 h 0,0 mm 0,0 UV-I 0 W/m 3,9 C 10,2 km/h (2 Bft)
22.02.2021 22:00 11,9 C 57 % 1025,2 hPa 0,0 mm 2,9 km/h (1 Bft) S-SW 0,00 h 0,0 mm 0,0 UV-I 0 W/m 3,6 C 7,6 km/h (2 Bft)
22.02.2021 23:00 11,5 C 58 % 1026,0 hPa 0,0 mm 3,3 km/h (1 Bft) W-SW 0,00 h 0,0 mm 0,0 UV-I 0 W/m 3,6 C 8,1 km/h (2 Bft)
23.02.2021 00:00 12,0 C 58 % 1026,5 hPa 0,0 mm 4,0 km/h (1 Bft) SW 0,00 h 0,0 mm 0,0 UV-I 0 W/m 4,0 C 10,0 km/h (2 Bft)
23.02.2021 01:00 11,5 C 66 % 1026,9 hPa 0,0 mm 3,2 km/h (1 Bft) S 0,00 h 0,0 mm 0,0 UV-I 0 W/m 5,3 C 8,5 km/h (2 Bft)
23.02.2021 02:00 10,9 C 70 % 1027,4 hPa 0,0 mm 3,3 km/h (1 Bft) S 0,00 h 0,0 mm 0,0 UV-I 0 W/m 5,7 C 9,3 km/h (2 Bft)
23.02.2021 03:00 10,9 C 71 % 1027,0 hPa 0,0 mm 6,5 km/h (2 Bft) S-SW 0,00 h 0,0 mm 0,0 UV-I 0 W/m 5,8 C 14,4 km/h (3 Bft)
23.02.2021 04:00 10,9 C 72 % 1026,8 hPa 0,0 mm 6,5 km/h (2 Bft) S-SW 0,00 h 0,0 mm 0,0 UV-I 0 W/m 6,0 C 13,7 km/h (3 Bft)
23.02.2021 05:00 10,8 C 73 % 1027,3 hPa 0,0 mm 4,2 km/h (1 Bft) S 0,00 h 0,0 mm 0,0 UV-I 0 W/m 6,1 C 10,5 km/h (2 Bft)
23.02.2021 06:00 10,6 C 75 % 1027,9 hPa 0,0 mm 3,0 km/h (1 Bft) S 0,00 h 0,0 mm 0,0 UV-I 0 W/m 6,3 C 9,3 km/h (2 Bft)
23.02.2021 07:00 10,4 C 77 % 1029,0 hPa 0,0 mm 2,9 km/h (1 Bft) S 0,00 h 0,0 mm 0,0 UV-I 9 W/m 6,6 C 7,2 km/h (2 Bft)
23.02.2021 08:00 10,6 C 78 % 1029,9 hPa 0,0 mm 4,1 km/h (1 Bft) S 0,08 h 0,0 mm 1,2 UV-I 59 W/m 6,9 C 10,3 km/h (2 Bft)
23.02.2021 09:00 12,3 C 74 % 1030,3 hPa 0,0 mm 6,5 km/h (2 Bft) S 1,00 h 0,0 mm 1,9 UV-I 237 W/m 7,7 C 13,9 km/h (3 Bft)
23.02.2021 10:00 14,8 C 67 % 1030,6 hPa 0,0 mm 8,7 km/h (2 Bft) W-SW 1,00 h 0,1 mm 3,2 UV-I 398 W/m 8,7 C 19,6 km/h (3 Bft)
23.02.2021 11:00 16,9 C 61 % 1030,8 hPa 0,0 mm 9,1 km/h (2 Bft) O 1,00 h 0,2 mm 4,7 UV-I 539 W/m 9,4 C 19,8 km/h (4 Bft)
23.02.2021 12:00 17,5 C 60 % 1030,8 hPa 0,0 mm 5,4 km/h (1 Bft) N-NW 0,00 h 0,3 mm 3,2 UV-I 145 W/m 9,7 C 14,3 km/h (3 Bft)
23.02.2021 13:00 17,7 C 61 % 1030,4 hPa 0,0 mm 4,2 km/h (1 Bft) NW 0,08 h 0,1 mm 3,7 UV-I 200 W/m 10,0 C 9,6 km/h (2 Bft)
23.02.2021 14:00 18,0 C 61 % 1030,0 hPa 0,0 mm 5,0 km/h (1 Bft) N 0,17 h 0,1 mm 3,5 UV-I 216 W/m 10,4 C 10,7 km/h (2 Bft)
23.02.2021 15:00 18,5 C 58 % 1029,7 hPa 0,0 mm 3,2 km/h (1 Bft) NW 0,83 h 0,1 mm 3,0 UV-I 304 W/m 10,2 C 7,8 km/h (2 Bft)
23.02.2021 16:00 18,0 C 62 % 1029,6 hPa 0,0 mm 0,1 km/h (0 Bft) N 0,50 h 0,2 mm 1,7 UV-I 159 W/m 10,5 C 0,9 km/h (0 Bft)
23.02.2021 17:00 16,6 C 67 % 1029,9 hPa 0,0 mm 0,0 km/h (0 Bft) N 0,33 h 0,1 mm 0,7 UV-I 40 W/m 10,5 C 0,2 km/h (0 Bft)
23.02.2021 18:00 15,0 C 73 % 1031,0 hPa 0,0 mm 0,7 km/h (0 Bft) NW 0,00 h 0,0 mm 0,0 UV-I 2 W/m 10,3 C 2,2 km/h (1 Bft)
23.02.2021 19:00 14,4 C 75 % 1031,7 hPa 0,0 mm 0,2 km/h (0 Bft) NW 0,00 h 0,0 mm 0,0 UV-I 0 W/m 10,0 C 0,9 km/h (0 Bft)
23.02.2021 20:00 13,9 C 75 % 1031,8 hPa 0,0 mm 1,3 km/h (1 Bft) W-SW 0,00 h 0,0 mm 0,0 UV-I 0 W/m 9,5 C 3,5 km/h (1 Bft)
23.02.2021 21:00 13,6 C 73 % 1031,2 hPa 0,0 mm 4,8 km/h (1 Bft) S-SW 0,00 h 0,0 mm 0,0 UV-I 0 W/m 8,9 C 11,1 km/h (2 Bft)
23.02.2021 22:00 13,5 C 73 % 1030,5 hPa 0,0 mm 5,5 km/h (1 Bft) S-SW 0,00 h 0,0 mm 0,0 UV-I 0 W/m 8,8 C 11,3 km/h (2 Bft)
23.02.2021 23:00 13,7 C 73 % 1030,4 hPa 0,0 mm 6,3 km/h (2 Bft) O 0,00 h 0,0 mm 0,0 UV-I 0 W/m 8,8 C 13,9 km/h (3 Bft)
24.02.2021 00:00 13,4 C 73 % 1030,7 hPa 0,0 mm 4,5 km/h (1 Bft) O 0,00 h 0,0 mm 0,0 UV-I 0 W/m 8,6 C 10,2 km/h (2 Bft)
24.02.2021 01:00 12,7 C 76 % 1031,2 hPa 0,0 mm 4,5 km/h (1 Bft) O 0,00 h 0,0 mm 0,0 UV-I 0 W/m 8,6 C 9,8 km/h (2 Bft)
24.02.2021 02:00 11,7 C 79 % 1031,4 hPa 0,0 mm 1,5 km/h (1 Bft) S-SW 0,00 h 0,0 mm 0,0 UV-I 0 W/m 8,1 C 3,3 km/h (1 Bft)
24.02.2021 03:00 9,9 C 84 % 1031,1 hPa 0,0 mm 1,2 km/h (1 Bft) O 0,00 h 0,0 mm 0,0 UV-I 0 W/m 7,3 C 2,8 km/h (1 Bft)
24.02.2021 04:00 10,8 C 84 % 1030,7 hPa 0,0 mm 4,3 km/h (1 Bft) O 0,00 h 0,0 mm 0,0 UV-I 0 W/m 8,2 C 8,2 km/h (2 Bft)
24.02.2021 05:00 11,2 C 82 % 1030,5 hPa 0,0 mm 6,0 km/h (2 Bft) O 0,00 h 0,0 mm 0,0 UV-I 0 W/m 8,2 C 10,4 km/h (2 Bft)
24.02.2021 06:00 11,0 C 82 % 1030,6 hPa 0,0 mm 5,6 km/h (1 Bft) O 0,00 h 0,0 mm 0,0 UV-I 0 W/m 8,0 C 12,0 km/h (2 Bft)
24.02.2021 07:00 11,0 C 82 % 1030,7 hPa 0,0 mm 5,5 km/h (1 Bft) O 0,00 h 0,0 mm 0,0 UV-I 11 W/m 8,1 C 13,3 km/h (3 Bft)
24.02.2021 08:00 11,0 C 82 % 1030,8 hPa 0,0 mm 5,5 km/h (1 Bft) O 0,33 h 0,0 mm 1,2 UV-I 81 W/m 8,1 C 11,7 km/h (2 Bft)
24.02.2021 09:00 12,0 C 80 % 1031,1 hPa 0,0 mm 4,2 km/h (1 Bft) SW 1,00 h 0,1 mm 1,9 UV-I 259 W/m 8,7 C 10,0 km/h (2 Bft)
24.02.2021 10:00 14,0 C 75 % 1031,0 hPa 0,0 mm 5,4 km/h (1 Bft) S 1,00 h 0,1 mm 3,3 UV-I 417 W/m 9,6 C 11,3 km/h (2 Bft)
24.02.2021 11:00 16,5 C 68 % 1030,6 hPa 0,0 mm 5,6 km/h (1 Bft) S 1,00 h 0,2 mm 5,0 UV-I 534 W/m 10,7 C 13,7 km/h (3 Bft)
24.02.2021 12:00 18,9 C 60 % 1030,1 hPa 0,0 mm 7,4 km/h (2 Bft) SW 1,00 h 0,3 mm 7,0 UV-I 585 W/m 10,9 C 16,6 km/h (3 Bft)
24.02.2021 13:00 20,2 C 54 % 1029,3 hPa 0,0 mm 8,6 km/h (2 Bft) W-SW 1,00 h 0,3 mm 6,4 UV-I 568 W/m 10,7 C 19,1 km/h (3 Bft)
24.02.2021 14:00 21,1 C 49 % 1028,6 hPa 0,0 mm 8,4 km/h (2 Bft) W-SW 1,00 h 0,3 mm 3,8 UV-I 496 W/m 10,0 C 17,6 km/h (3 Bft)
24.02.2021 15:00 20,6 C 49 % 1028,1 hPa 0,0 mm 8,7 km/h (2 Bft) S-SW 1,00 h 0,3 mm 1,2 UV-I 372 W/m 9,5 C 19,1 km/h (3 Bft)
24.02.2021 16:00 19,8 C 51 % 1027,7 hPa 0,0 mm 7,3 km/h (2 Bft) S-SW 1,00 h 0,2 mm 1,2 UV-I 217 W/m 9,3 C 17,4 km/h (3 Bft)
24.02.2021 17:00 18,7 C 54 % 1027,6 hPa 0,0 mm 6,7 km/h (2 Bft) SW 0,92 h 0,2 mm 1,0 UV-I 59 W/m 9,3 C 14,4 km/h (3 Bft)
24.02.2021 18:00 17,2 C 59 % 1027,7 hPa 0,0 mm 6,5 km/h (2 Bft) SW 0,00 h 0,1 mm 0,0 UV-I 6 W/m 9,2 C 13,9 km/h (3 Bft)
24.02.2021 19:00 16,1 C 62 % 1027,5 hPa 0,0 mm 7,5 km/h (2 Bft) S-SW 0,00 h 0,0 mm 0,0 UV-I 0 W/m 9,0 C 16,1 km/h (3 Bft)
24.02.2021 20:00 15,3 C 65 % 1027,2 hPa 0,0 mm 6,7 km/h (2 Bft) SW 0,00 h 0,0 mm 0,0 UV-I 0 W/m 8,7 C 13,9 km/h (3 Bft)
24.02.2021 21:00 14,4 C 67 % 1027,0 hPa 0,0 mm 4,8 km/h (1 Bft) S-SW 0,00 h 0,0 mm 0,0 UV-I 0 W/m 8,4 C 11,1 km/h (2 Bft)
24.02.2021 22:00 12,7 C 73 % 1027,1 hPa 0,0 mm 1,4 km/h (1 Bft) S 0,00 h 0,0 mm 0,0 UV-I 0 W/m 7,9 C 4,2 km/h (1 Bft)
24.02.2021 23:00 10,9 C 78 % 1027,1 hPa 0,0 mm 0,1 km/h (0 Bft) S 0,00 h 0,0 mm 0,0 UV-I 0 W/m 7,3 C 0,6 km/h (0 Bft)
25.02.2021 00:00 10,3 C 82 % 1026,9 hPa 0,0 mm 2,7 km/h (1 Bft) S 0,00 h 0,0 mm 0,0 UV-I 0 W/m 7,3 C 5,9 km/h (2 Bft)
25.02.2021 01:00 10,6 C 81 % 1026,8 hPa 0,0 mm 2,7 km/h (1 Bft) SW 0,00 h 0,0 mm 0,0 UV-I 0 W/m 7,4 C 6,3 km/h (2 Bft)
25.02.2021 02:00 10,5 C 81 % 1026,4 hPa 0,0 mm 4,0 km/h (1 Bft) SW 0,00 h 0,0 mm 0,0 UV-I 0 W/m 7,3 C 9,4 km/h (2 Bft)
25.02.2021 03:00 10,3 C 82 % 1026,0 hPa 0,0 mm 5,1 km/h (1 Bft) S-SW 0,00 h 0,0 mm 0,0 UV-I 0 W/m 7,3 C 11,7 km/h (2 Bft)
25.02.2021 04:00 9,9 C 82 % 1025,9 hPa 0,0 mm 4,2 km/h (1 Bft) S-SW 0,00 h 0,0 mm 0,0 UV-I 0 W/m 6,9 C 9,8 km/h (2 Bft)
25.02.2021 05:00 9,5 C 82 % 1026,1 hPa 0,0 mm 4,7 km/h (1 Bft) SW 0,00 h 0,0 mm 0,0 UV-I 0 W/m 6,5 C 10,4 km/h (2 Bft)
25.02.2021 06:00 8,9 C 82 % 1026,2 hPa 0,0 mm 1,9 km/h (1 Bft) SW 0,00 h 0,0 mm 0,0 UV-I 0 W/m 6,0 C 5,0 km/h (1 Bft)
25.02.2021 07:00 8,2 C 84 % 1026,2 hPa 0,0 mm 3,5 km/h (1 Bft) SW 0,00 h 0,0 mm 0,0 UV-I 13 W/m 5,6 C 8,5 km/h (2 Bft)
25.02.2021 08:00 8,9 C 82 % 1026,7 hPa 0,0 mm 4,4 km/h (1 Bft) SW 0,33 h 0,0 mm 0,8 UV-I 84 W/m 6,0 C 9,6 km/h (2 Bft)
25.02.2021 09:00 11,3 C 75 % 1026,8 hPa 0,0 mm 5,6 km/h (1 Bft) SW 1,00 h 0,1 mm 1,4 UV-I 261 W/m 7,0 C 12,9 km/h (3 Bft)
25.02.2021 10:00 13,9 C 68 % 1026,8 hPa 0,0 mm 6,5 km/h (2 Bft) O 1,00 h 0,1 mm 2,8 UV-I 417 W/m 8,2 C 15,7 km/h (3 Bft)
25.02.2021 11:00 16,4 C 61 % 1026,9 hPa 0,0 mm 6,1 km/h (2 Bft) W-SW 1,00 h 0,2 mm 4,5 UV-I 526 W/m 8,9 C 13,1 km/h (3 Bft)
25.02.2021 12:00 18,2 C 53 % 1026,9 hPa 0,0 mm 4,0 km/h (1 Bft) SW 1,00 h 0,3 mm 5,6 UV-I 508 W/m 8,6 C 10,7 km/h (2 Bft)
25.02.2021 13:00 19,6 C 47 % 1026,2 hPa 0,0 mm 5,9 km/h (2 Bft) N 1,00 h 0,3 mm 4,6 UV-I 520 W/m 7,8 C 13,9 km/h (3 Bft)
25.02.2021 14:00 20,3 C 46 % 1025,8 hPa 0,0 mm 8,6 km/h (2 Bft) N 1,00 h 0,3 mm 2,6 UV-I 513 W/m 8,2 C 17,8 km/h (3 Bft)
25.02.2021 15:00 19,5 C 49 % 1025,5 hPa 0,0 mm 1,3 km/h (1 Bft) NW 1,00 h 0,3 mm 1,3 UV-I 310 W/m 8,6 C 4,8 km/h (1 Bft)
25.02.2021 16:00 18,4 C 55 % 1025,4 hPa 0,0 mm 0,2 km/h (0 Bft) N 0,75 h 0,2 mm 1,0 UV-I 167 W/m 9,1 C 0,7 km/h (0 Bft)
25.02.2021 17:00 17,2 C 58 % 1025,6 hPa 0,0 mm 0,0 km/h (0 Bft) N 0,08 h 0,1 mm 0,4 UV-I 43 W/m 8,8 C 0,0 km/h (0 Bft)
25.02.2021 18:00 16,4 C 62 % 1025,9 hPa 0,0 mm 0,0 km/h (0 Bft) N 0,00 h 0,0 mm 0,0 UV-I 5 W/m 9,0 C 0,0 km/h (0 Bft)
25.02.2021 19:00 14,9 C 69 % 1026,2 hPa 0,0 mm 0,9 km/h (0 Bft) NW 0,00 h 0,0 mm 0,0 UV-I 0 W/m 9,1 C 2,4 km/h (1 Bft)
25.02.2021 20:00 14,0 C 71 % 1026,4 hPa 0,0 mm 2,1 km/h (1 Bft) NW 0,00 h 0,0 mm 0,0 UV-I 0 W/m 8,8 C 4,6 km/h (1 Bft)
25.02.2021 21:00 12,9 C 76 % 1027,1 hPa 0,0 mm 0,9 km/h (0 Bft) N 0,00 h 0,0 mm 0,0 UV-I 0 W/m 8,8 C 4,1 km/h (1 Bft)
25.02.2021 22:00 12,1 C 82 % 1028,2 hPa 0,0 mm 0,4 km/h (0 Bft) N 0,00 h 0,0 mm 0,0 UV-I 0 W/m 9,1 C 2,6 km/h (1 Bft)
25.02.2021 23:00 11,5 C 85 % 1028,5 hPa 0,0 mm 0,0 km/h (0 Bft) N 0,00 h 0,0 mm 0,0 UV-I 0 W/m 9,0 C 0,9 km/h (0 Bft)
26.02.2021 00:00 11,0 C 87 % 1029,0 hPa 0,0 mm 0,1 km/h (0 Bft) N 0,00 h 0,0 mm 0,0 UV-I 0 W/m 8,9 C 1,5 km/h (1 Bft)
26.02.2021 01:00 10,8 C 88 % 1029,3 hPa 0,0 mm 0,2 km/h (0 Bft) N 0,00 h 0,0 mm 0,0 UV-I 0 W/m 8,8 C 1,3 km/h (1 Bft)
26.02.2021 02:00 9,8 C 91 % 1029,6 hPa 0,0 mm 0,7 km/h (0 Bft) O 0,00 h 0,0 mm 0,0 UV-I 0 W/m 8,3 C 3,3 km/h (1 Bft)
26.02.2021 03:00 8,6 C 89 % 1029,7 hPa 0,0 mm 0,5 km/h (0 Bft) N-NO 0,00 h 0,0 mm 0,0 UV-I 0 W/m 6,9 C 2,8 km/h (1 Bft)
26.02.2021 04:00 8,3 C 87 % 1030,0 hPa 0,0 mm 0,1 km/h (0 Bft) N 0,00 h 0,0 mm 0,0 UV-I 0 W/m 6,2 C 1,3 km/h (1 Bft)
26.02.2021 05:00 7,7 C 88 % 1030,9 hPa 0,5 mm 0,4 km/h (0 Bft) O 0,00 h 0,0 mm 0,0 UV-I 0 W/m 5,8 C 3,3 km/h (1 Bft)
26.02.2021 06:00 6,7 C 89 % 1031,5 hPa 0,5 mm 0,6 km/h (0 Bft) O 0,00 h 0,0 mm 0,0 UV-I 0 W/m 4,9 C 3,1 km/h (1 Bft)
26.02.2021 07:00 6,4 C 88 % 1032,1 hPa 0,3 mm 0,0 km/h (0 Bft) N 0,00 h 0,0 mm 0,0 UV-I 5 W/m 4,6 C 0,4 km/h (0 Bft)
26.02.2021 08:00 6,3 C 89 % 1032,5 hPa 0,0 mm 0,1 km/h (0 Bft) N 0,00 h 0,0 mm 0,0 UV-I 25 W/m 4,7 C 0,6 km/h (0 Bft)
26.02.2021 09:00 6,8 C 89 % 1033,3 hPa 0,0 mm 0,1 km/h (0 Bft) N 0,00 h 0,0 mm 0,9 UV-I 102 W/m 5,1 C 1,3 km/h (1 Bft)
26.02.2021 10:00 7,5 C 85 % 1033,5 hPa 0,0 mm 0,5 km/h (0 Bft) O 0,25 h 0,1 mm 1,4 UV-I 207 W/m 5,2 C 3,3 km/h (1 Bft)
26.02.2021 11:00 8,6 C 82 % 1033,7 hPa 0,0 mm 1,0 km/h (0 Bft) O 0,75 h 0,1 mm 2,2 UV-I 464 W/m 5,7 C 4,1 km/h (1 Bft)
26.02.2021 12:00 10,2 C 72 % 1033,8 hPa 0,0 mm 1,5 km/h (1 Bft) O 0,92 h 0,2 mm 2,7 UV-I 501 W/m 5,4 C 6,9 km/h (2 Bft)
26.02.2021 13:00 10,8 C 61 % 1033,6 hPa 0,0 mm 1,5 km/h (1 Bft) O 0,67 h 0,2 mm 2,2 UV-I 452 W/m 3,5 C 5,5 km/h (1 Bft)
26.02.2021 14:00 11,4 C 55 % 1033,3 hPa 0,0 mm 2,3 km/h (1 Bft) O 0,92 h 0,2 mm 1,9 UV-I 448 W/m 2,7 C 8,5 km/h (2 Bft)
26.02.2021 15:00 11,0 C 55 % 1033,3 hPa 0,0 mm 1,8 km/h (1 Bft) O 0,83 h 0,2 mm 0,7 UV-I 316 W/m 2,4 C 6,1 km/h (2 Bft)
26.02.2021 16:00 10,5 C 54 % 1033,5 hPa 0,0 mm 1,4 km/h (1 Bft) O 0,92 h 0,1 mm 0,8 UV-I 235 W/m 1,6 C 4,8 km/h (1 Bft)
26.02.2021 17:00 9,9 C 59 % 1034,0 hPa 0,0 mm 0,9 km/h (0 Bft) O 0,42 h 0,1 mm 0,6 UV-I 47 W/m 2,4 C 4,2 km/h (1 Bft)
26.02.2021 18:00 9,3 C 63 % 1034,4 hPa 0,0 mm 0,1 km/h (0 Bft) N 0,00 h 0,0 mm 0,0 UV-I 6 W/m 2,6 C 0,6 km/h (0 Bft)
26.02.2021 19:00 8,2 C 66 % 1035,2 hPa 0,0 mm 0,0 km/h (0 Bft) N 0,00 h 0,0 mm 0,0 UV-I 0 W/m 2,3 C 0,0 km/h (0 Bft)
26.02.2021 20:00 7,0 C 72 % 1035,8 hPa 0,0 mm 0,0 km/h (0 Bft) N 0,00 h 0,0 mm 0,0 UV-I 0 W/m 2,2 C 0,0 km/h (0 Bft)
26.02.2021 21:00 6,1 C 75 % 1036,2 hPa 0,0 mm 0,0 km/h (0 Bft) N 0,00 h 0,0 mm 0,0 UV-I 0 W/m 2,0 C 0,0 km/h (0 Bft)
26.02.2021 22:00 5,1 C 81 % 1036,8 hPa 0,0 mm 0,0 km/h (0 Bft) N 0,00 h 0,0 mm 0,0 UV-I 0 W/m 2,0 C 0,0 km/h (0 Bft)
26.02.2021 23:00 4,5 C 84 % 1037,1 hPa 0,0 mm 0,0 km/h (0 Bft) N 0,00 h 0,0 mm 0,0 UV-I 0 W/m 2,0 C 0,0 km/h (0 Bft)
27.02.2021 00:00 4,0 C 86 % 1037,5 hPa 0,0 mm 0,0 km/h (0 Bft) N 0,00 h 0,0 mm 0,0 UV-I 0 W/m 1,8 C 0,0 km/h (0 Bft)
27.02.2021 01:00 3,5 C 87 % 1037,8 hPa 0,0 mm 0,0 km/h (0 Bft) N 0,00 h 0,0 mm 0,0 UV-I 0 W/m 1,6 C 0,2 km/h (0 Bft)
27.02.2021 02:00 2,7 C 88 % 1038,1 hPa 0,0 mm 0,0 km/h (0 Bft) N 0,00 h 0,0 mm 0,0 UV-I 0 W/m 1,0 C 0,0 km/h (0 Bft)
27.02.2021 03:00 3,4 C 90 % 1038,2 hPa 0,0 mm 0,0 km/h (0 Bft) N 0,00 h 0,0 mm 0,0 UV-I 0 W/m 1,9 C 0,0 km/h (0 Bft)
27.02.2021 04:00 4,1 C 90 % 1038,3 hPa 0,0 mm 0,0 km/h (0 Bft) N 0,00 h 0,0 mm 0,0 UV-I 0 W/m 2,6 C 0,0 km/h (0 Bft)
27.02.2021 05:00 4,2 C 89 % 1038,8 hPa 0,0 mm 0,0 km/h (0 Bft) N 0,00 h 0,0 mm 0,0 UV-I 0 W/m 2,6 C 0,0 km/h (0 Bft)
27.02.2021 06:00 4,2 C 89 % 1039,1 hPa 0,0 mm 0,0 km/h (0 Bft) N 0,00 h 0,0 mm 0,0 UV-I 0 W/m 2,6 C 0,0 km/h (0 Bft)
27.02.2021 07:00 4,2 C 88 % 1039,5 hPa 0,0 mm 0,0 km/h (0 Bft) N 0,00 h 0,0 mm 0,0 UV-I 8 W/m 2,4 C 0,0 km/h (0 Bft)
27.02.2021 08:00 4,2 C 88 % 1040,1 hPa 0,0 mm 0,0 km/h (0 Bft) N 0,00 h 0,0 mm 0,0 UV-I 33 W/m 2,4 C 0,0 km/h (0 Bft)
27.02.2021 09:00 4,5 C 86 % 1040,5 hPa 0,0 mm 0,0 km/h (0 Bft) N 0,08 h 0,0 mm 0,9 UV-I 123 W/m 2,4 C 0,0 km/h (0 Bft)
27.02.2021 10:00 5,0 C 83 % 1040,8 hPa 0,0 mm 0,0 km/h (0 Bft) N 0,00 h 0,1 mm 1,1 UV-I 145 W/m 2,4 C 0,0 km/h (0 Bft)
27.02.2021 11:00 5,5 C 81 % 1040,9 hPa 0,0 mm 0,2 km/h (0 Bft) N 0,33 h 0,1 mm 1,5 UV-I 261 W/m 2,5 C 1,5 km/h (1 Bft)
27.02.2021 12:00 6,7 C 78 % 1040,7 hPa 0,0 mm 2,3 km/h (1 Bft) O 0,92 h 0,1 mm 2,7 UV-I 566 W/m 3,2 C 8,1 km/h (2 Bft)
27.02.2021 13:00 8,3 C 72 % 1040,3 hPa 0,0 mm 1,6 km/h (1 Bft) NW 1,00 h 0,2 mm 2,5 UV-I 581 W/m 3,7 C 6,7 km/h (2 Bft)
27.02.2021 14:00 9,0 C 68 % 1039,6 hPa 0,0 mm 0,0 km/h (0 Bft) N 0,92 h 0,2 mm 1,4 UV-I 448 W/m 3,5 C 0,9 km/h (0 Bft)
27.02.2021 15:00 9,6 C 67 % 1039,1 hPa 0,0 mm 0,0 km/h (0 Bft) N 1,00 h 0,2 mm 0,9 UV-I 416 W/m 3,9 C 0,0 km/h (0 Bft)
27.02.2021 16:00 9,9 C 66 % 1038,7 hPa 0,0 mm 0,0 km/h (0 Bft) N 1,00 h 0,2 mm 0,7 UV-I 265 W/m 3,7 C 0,0 km/h (0 Bft)
27.02.2021 17:00 9,1 C 69 % 1038,8 hPa 0,0 mm 0,0 km/h (0 Bft) N 0,42 h 0,1 mm 0,3 UV-I 51 W/m 3,8 C 0,0 km/h (0 Bft)
27.02.2021 18:00 7,5 C 75 % 1039,1 hPa 0,0 mm 0,0 km/h (0 Bft) N 0,00 h 0,0 mm 0,0 UV-I 6 W/m 3,4 C 0,0 km/h (0 Bft)
27.02.2021 19:00 6,2 C 80 % 1039,4 hPa 0,0 mm 0,0 km/h (0 Bft) N 0,00 h 0,0 mm 0,0 UV-I 0 W/m 2,9 C 0,2 km/h (0 Bft)
27.02.2021 20:00 5,6 C 82 % 1039,5 hPa 0,0 mm 0,4 km/h (0 Bft) N 0,00 h 0,0 mm 0,0 UV-I 0 W/m 2,8 C 2,9 km/h (1 Bft)
27.02.2021 21:00 5,2 C 82 % 1039,7 hPa 0,0 mm 0,0 km/h (0 Bft) N 0,00 h 0,0 mm 0,0 UV-I 0 W/m 2,4 C 0,6 km/h (0 Bft)
27.02.2021 22:00 4,2 C 84 % 1039,6 hPa 0,0 mm 0,0 km/h (0 Bft) N 0,00 h 0,0 mm 0,0 UV-I 0 W/m 1,8 C 0,0 km/h (0 Bft)
27.02.2021 23:00 4,1 C 87 % 1039,5 hPa 0,0 mm 0,1 km/h (0 Bft) N 0,00 h 0,0 mm 0,0 UV-I 0 W/m 2,1 C 0,7 km/h (0 Bft)
28.02.2021 00:00 4,8 C 86 % 1039,3 hPa 0,0 mm 0,5 km/h (0 Bft) NO 0,00 h 0,0 mm 0,0 UV-I 0 W/m 2,7 C 1,5 km/h (1 Bft)
28.02.2021 01:00 5,0 C 87 % 1039,3 hPa 0,0 mm 0,0 km/h (0 Bft) N 0,00 h 0,0 mm 0,0 UV-I 0 W/m 3,0 C 0,0 km/h (0 Bft)
28.02.2021 02:00 5,3 C 86 % 1038,9 hPa 0,0 mm 0,0 km/h (0 Bft) N 0,00 h 0,0 mm 0,0 UV-I 0 W/m 3,2 C 0,4 km/h (0 Bft)
28.02.2021 03:00 5,1 C 85 % 1038,4 hPa 0,0 mm 0,0 km/h (0 Bft) N 0,00 h 0,0 mm 0,0 UV-I 0 W/m 2,8 C 0,0 km/h (0 Bft)
28.02.2021 04:00 4,5 C 85 % 1038,1 hPa 0,0 mm 0,1 km/h (0 Bft) N 0,00 h 0,0 mm 0,0 UV-I 0 W/m 2,3 C 1,2 km/h (1 Bft)
28.02.2021 05:00 3,7 C 85 % 1037,9 hPa 0,0 mm 0,1 km/h (0 Bft) N 0,00 h 0,0 mm 0,0 UV-I 0 W/m 1,4 C 0,9 km/h (0 Bft)
28.02.2021 06:00 2,9 C 86 % 1037,8 hPa 0,0 mm 0,7 km/h (0 Bft) SO 0,00 h 0,0 mm 0,0 UV-I 0 W/m 0,8 C 2,4 km/h (1 Bft)
28.02.2021 07:00 2,8 C 85 % 1037,6 hPa 0,0 mm 0,8 km/h (0 Bft) S 0,00 h 0,0 mm 0,0 UV-I 13 W/m 0,6 C 2,4 km/h (1 Bft)
28.02.2021 08:00 2,6 C 87 % 1037,8 hPa 0,0 mm 0,0 km/h (0 Bft) O 0,25 h 0,0 mm 0,4 UV-I 100 W/m 0,8 C 0,2 km/h (0 Bft)
28.02.2021 09:00 4,8 C 84 % 1037,9 hPa 0,0 mm 3,0 km/h (1 Bft) O 1,00 h 0,0 mm 0,8 UV-I 328 W/m 2,3 C 9,1 km/h (2 Bft)
28.02.2021 10:00 7,2 C 72 % 1037,7 hPa 0,0 mm 4,5 km/h (1 Bft) O 1,00 h 0,1 mm 1,7 UV-I 483 W/m 2,4 C 10,4 km/h (2 Bft)
28.02.2021 11:00 8,9 C 66 % 1037,5 hPa 0,0 mm 4,0 km/h (1 Bft) O 1,00 h 0,2 mm 2,3 UV-I 594 W/m 2,8 C 10,2 km/h (2 Bft)
28.02.2021 12:00 10,2 C 61 % 1036,8 hPa 0,0 mm 3,5 km/h (1 Bft) S 1,00 h 0,2 mm 2,6 UV-I 644 W/m 3,0 C 9,1 km/h (2 Bft)
28.02.2021 13:00 11,2 C 58 % 1035,9 hPa 0,0 mm 1,5 km/h (1 Bft) S-SW 1,00 h 0,3 mm 1,8 UV-I 641 W/m 3,2 C 5,5 km/h (1 Bft)
28.02.2021 14:00 12,1 C 56 % 1035,0 hPa 0,0 mm 1,3 km/h (1 Bft) S 1,00 h 0,3 mm 1,0 UV-I 577 W/m 3,5 C 6,1 km/h (2 Bft)
28.02.2021 15:00 12,5 C 58 % 1034,3 hPa 0,0 mm 1,5 km/h (1 Bft) N-NW 1,00 h 0,2 mm 0,5 UV-I 457 W/m 4,4 C 5,0 km/h (1 Bft)
28.02.2021 16:00 12,6 C 60 % 1033,7 hPa 0,0 mm 0,4 km/h (0 Bft) N-NW 1,00 h 0,2 mm 0,0 UV-I 291 W/m 5,0 C 2,4 km/h (1 Bft)
28.02.2021 17:00 12,1 C 62 % 1033,5 hPa 0,0 mm 0,8 km/h (0 Bft) N-NW 0,67 h 0,1 mm 0,4 UV-I 85 W/m 5,0 C 2,6 km/h (1 Bft)
28.02.2021 18:00 10,5 C 68 % 1033,7 hPa 0,0 mm 0,4 km/h (0 Bft) N 0,08 h 0,1 mm 0,0 UV-I 9 W/m 4,8 C 2,2 km/h (1 Bft)
28.02.2021 19:00 9,2 C 72 % 1033,8 hPa 0,0 mm 0,0 km/h (0 Bft) N 0,00 h 0,0 mm 0,0 UV-I 0 W/m 4,4 C 0,2 km/h (0 Bft)
28.02.2021 20:00 7,9 C 77 % 1033,8 hPa 0,0 mm 0,0 km/h (0 Bft) N 0,00 h 0,0 mm 0,0 UV-I 0 W/m 4,0 C 0,0 km/h (0 Bft)
28.02.2021 21:00 6,0 C 82 % 1033,8 hPa 0,0 mm 0,0 km/h (0 Bft) N 0,00 h 0,0 mm 0,0 UV-I 0 W/m 3,1 C 0,0 km/h (0 Bft)
28.02.2021 22:00 4,8 C 85 % 1033,9 hPa 0,0 mm 0,0 km/h (0 Bft) N 0,00 h 0,0 mm 0,0 UV-I 0 W/m 2,6 C 0,0 km/h (0 Bft)
28.02.2021 23:00 3,9 C 87 % 1033,7 hPa 0,0 mm 0,0 km/h (0 Bft) N 0,00 h 0,0 mm 0,0 UV-I 0 W/m 1,9 C 0,0 km/h (0 Bft)
Min-Datum _ 28.02.21 25.02.21 22.02.21 - 22.02.21 - - - - - 28.02.21 22.02.21
_ Min-Zeit 08:05 13:50 00:00 - 01:00 - - - - - 08:00 01:00
Minimum _ 2,1 C 44 % 1015,5 hPa - 0,0 km/h (0 Bft) - - - - - 0,1 C 0,0 km/h (0 Bft)
Max-Datum _ 24.02.21 26.02.21 27.02.21 26.02.21 23.02.21 - 22.02.21 24.02.21 24.02.21 27.02.21 24.02.21 22.02.21
_ Max-Zeit 14:35 02:15 11:20 05:50 11:00 - 09:30 13:00 12:45 13:10 13:00 11:10
Maximum _ 21,3 C 91 % 1041,0 hPa 0,5 mm 13,0 km/h
O (3 Bft)
- 0,08 h 0,3 mm 7,5 UV-I 704 W/m 11,4 C 28,9 km/h
O (5 Bft)
Durchschnitt _ 10,5 C 73 % 1030,5 hPa #1,3 mm 2,8 km/h (1 Bft) O #45:35 h #10,109 mm 2,1 UV-I 251 W/m 5,6 C 6,8 km/h (2 Bft)



© 1998 - 2021 www.pulheimwetter.de